SKW4708 KSFO-KACV

Flight info

Callsign SKW4708
Flight time 0h 47m
Altitude 32000
Route TRUKN2 GRTFL DALON YAGER ACV
Aircraft E75L/M-SDE3GILORVW/S

Departure

Time 2026-04-25 05:55
Airport San Francisco International Airport (KSFO)

Arrival

Time 2026-04-25 06:42
Airport California Redwood Coast-Humboldt County Airport (KACV)
Time Latitude Longitude Altitude Speed Heading
2026-04-25 05:23 37.62151 -122.39002 20 ft 0 kts 205°
2026-04-25 05:44 37.62159 -122.38998 21 ft 3 kts 205°
2026-04-25 05:45 37.62175 -122.38988 21 ft 3 kts 205°
2026-04-25 05:45 37.62192 -122.38978 22 ft 3 kts 205°
2026-04-25 05:45 37.62209 -122.38967 21 ft 3 kts 201°
2026-04-25 05:45 37.62228 -122.38967 20 ft 3 kts 154°
2026-04-25 05:46 37.62242 -122.38981 20 ft 2 kts 136°
2026-04-25 05:46 37.62249 -122.39000 21 ft 3 kts 92°
2026-04-25 05:46 37.62249 -122.39016 20 ft 0 kts 75°
2026-04-25 05:48 37.62253 -122.39000 20 ft 5 kts 73°
2026-04-25 05:48 37.62262 -122.38916 20 ft 14 kts 103°
2026-04-25 05:49 37.62208 -122.38774 20 ft 22 kts 117°
2026-04-25 05:49 37.62127 -122.38583 20 ft 26 kts 117°
2026-04-25 05:49 37.62041 -122.38381 20 ft 28 kts 118°
2026-04-25 05:49 37.61947 -122.38160 21 ft 28 kts 117°
2026-04-25 05:50 37.61863 -122.37956 20 ft 28 kts 118°
2026-04-25 05:50 37.61786 -122.37724 21 ft 30 kts 111°
2026-04-25 05:50 37.61704 -122.37475 20 ft 32 kts 117°
2026-04-25 05:50 37.61605 -122.37238 22 ft 29 kts 117°
2026-04-25 05:51 37.61507 -122.37003 20 ft 31 kts 121°
2026-04-25 05:51 37.61369 -122.36782 20 ft 33 kts 125°
2026-04-25 05:51 37.61256 -122.36528 20 ft 34 kts 119°
2026-04-25 05:51 37.61144 -122.36258 21 ft 36 kts 118°
2026-04-25 05:52 37.61064 -122.36063 20 ft 19 kts 116°
2026-04-25 05:52 37.61078 -122.35922 22 ft 14 kts 40°
2026-04-25 05:52 37.61095 -122.35908 21 ft 0 kts 28°
2026-04-25 05:54 37.61115 -122.35895 20 ft 10 kts 23°
2026-04-25 05:54 37.61214 -122.35944 20 ft 24 kts 299°
2026-04-25 05:54 37.61710 -122.37152 52 ft 147 kts 297°
2026-04-25 05:55 37.62227 -122.38307 1009 ft 144 kts 298°
2026-04-25 05:55 37.62756 -122.39453 1915 ft 166 kts 297°
2026-04-25 05:55 37.63354 -122.40812 2762 ft 187 kts 297°
2026-04-25 05:55 37.63986 -122.42297 3260 ft 202 kts 297°
2026-04-25 05:56 37.64653 -122.43907 3887 ft 209 kts 297°
2026-04-25 05:56 37.65332 -122.45592 4555 ft 225 kts 297°
2026-04-25 05:56 37.66095 -122.47412 5116 ft 243 kts 299°
2026-04-25 05:56 37.66940 -122.49343 5722 ft 258 kts 301°
2026-04-25 05:57 37.68212 -122.50989 6304 ft 270 kts 332°
2026-04-25 05:57 37.69963 -122.51790 7043 ft 273 kts 346°
2026-04-25 05:57 37.71831 -122.52297 7794 ft 277 kts 351°
2026-04-25 05:57 37.73761 -122.52557 8509 ft 280 kts 358°
2026-04-25 05:58 37.75716 -122.52663 9208 ft 283 kts 359°
2026-04-25 05:58 37.77686 -122.52637 9866 ft 286 kts 11°
2026-04-25 05:58 37.79524 -122.51616 10278 ft 297 kts 38°
2026-04-25 05:58 37.80996 -122.49765 10623 ft 309 kts 51°
2026-04-25 05:59 37.82337 -122.47584 11201 ft 314 kts 49°
2026-04-25 05:59 37.83989 -122.45801 11799 ft 318 kts 36°
2026-04-25 05:59 37.85869 -122.44290 12463 ft 322 kts 30°
2026-04-25 05:59 37.87857 -122.42960 13149 ft 326 kts 26°
2026-04-25 06:00 37.89926 -122.41741 13843 ft 330 kts 24°
2026-04-25 06:00 37.92035 -122.40569 14493 ft 333 kts 23°
2026-04-25 06:00 37.94182 -122.39431 15157 ft 336 kts 20°
2026-04-25 06:00 37.96414 -122.38485 15827 ft 339 kts 18°
2026-04-25 06:01 37.98671 -122.37579 16496 ft 343 kts 17°
2026-04-25 06:01 38.00962 -122.36678 17158 ft 346 kts 17°
2026-04-25 06:01 38.03273 -122.35770 17808 ft 349 kts 17°
2026-04-25 06:01 38.05612 -122.34851 18420 ft 353 kts 17°
2026-04-25 06:02 38.07968 -122.33922 19034 ft 357 kts 16°
2026-04-25 06:02 38.10351 -122.32983 19655 ft 361 kts 15°
2026-04-25 06:02 38.12771 -122.32031 20301 ft 366 kts 15°
2026-04-25 06:02 38.15220 -122.31066 20931 ft 370 kts 15°
2026-04-25 06:03 38.17688 -122.30091 21556 ft 373 kts 15°
2026-04-25 06:03 38.20181 -122.29105 22152 ft 377 kts 15°
2026-04-25 06:03 38.22695 -122.28110 22739 ft 381 kts 15°
2026-04-25 06:03 38.25240 -122.27103 23332 ft 385 kts 14°
2026-04-25 06:04 38.27815 -122.26083 23862 ft 388 kts 14°
2026-04-25 06:04 38.30403 -122.25057 24352 ft 392 kts 14°
2026-04-25 06:04 38.33021 -122.24213 24834 ft 392 kts
2026-04-25 06:04 38.35738 -122.23789 25372 ft 394 kts
2026-04-25 06:05 38.38478 -122.23508 25880 ft 397 kts 359°
2026-04-25 06:05 38.41248 -122.23476 26354 ft 398 kts 354°
2026-04-25 06:05 38.44026 -122.23572 26790 ft 401 kts 353°
2026-04-25 06:05 38.46823 -122.23702 27235 ft 404 kts 353°
2026-04-25 06:06 38.49637 -122.23839 27686 ft 407 kts 353°
2026-04-25 06:06 38.52488 -122.23979 28113 ft 410 kts 353°
2026-04-25 06:06 38.55344 -122.24118 28528 ft 413 kts 353°
2026-04-25 06:06 38.58229 -122.24259 28948 ft 416 kts 353°
2026-04-25 06:07 38.61143 -122.24401 29376 ft 419 kts 353°
2026-04-25 06:07 38.64071 -122.24544 29806 ft 422 kts 353°
2026-04-25 06:07 38.67042 -122.24691 29960 ft 431 kts 353°
2026-04-25 06:07 38.70046 -122.24835 30369 ft 432 kts 353°
2026-04-25 06:08 38.73016 -122.24979 30802 ft 432 kts 353°
2026-04-25 06:08 38.76056 -122.25128 31249 ft 432 kts 353°
2026-04-25 06:08 38.79044 -122.25273 31678 ft 431 kts 353°
2026-04-25 06:08 38.82021 -122.25418 31832 ft 425 kts 353°
2026-04-25 06:09 38.87963 -122.25712 31906 ft 435 kts 353°
2026-04-25 06:09 38.94024 -122.26007 31921 ft 436 kts 353°
2026-04-25 06:10 39.00077 -122.26304 31908 ft 435 kts 353°
2026-04-25 06:10 39.06063 -122.27050 31907 ft 429 kts 341°
2026-04-25 06:11 39.11404 -122.30132 31902 ft 418 kts 321°
2026-04-25 06:11 39.15623 -122.35180 31905 ft 413 kts 310°
2026-04-25 06:12 39.19581 -122.40543 31899 ft 413 kts 311°
2026-04-25 06:12 39.23688 -122.45748 31912 ft 414 kts 313°
2026-04-25 06:13 39.27859 -122.50823 31896 ft 414 kts 313°
2026-04-25 06:14 39.34236 -122.58368 31904 ft 416 kts 317°
2026-04-25 06:14 39.38796 -122.62987 31913 ft 416 kts 319°
2026-04-25 06:15 39.43386 -122.67575 31900 ft 416 kts 319°
2026-04-25 06:15 39.47964 -122.72157 31921 ft 417 kts 319°
2026-04-25 06:16 39.52548 -122.76754 31914 ft 416 kts 319°
2026-04-25 06:16 39.57123 -122.81351 31922 ft 416 kts 319°
2026-04-25 06:17 39.61676 -122.85935 31854 ft 417 kts 319°
2026-04-25 06:17 39.63973 -122.88252 31371 ft 417 kts 319°
2026-04-25 06:17 39.66252 -122.90551 30824 ft 416 kts 319°
2026-04-25 06:17 39.68541 -122.92863 30296 ft 418 kts 319°
2026-04-25 06:18 39.70846 -122.95191 29728 ft 421 kts 319°
2026-04-25 06:18 39.73158 -122.97529 29108 ft 419 kts 320°
2026-04-25 06:18 39.75449 -122.99847 28505 ft 415 kts 320°
2026-04-25 06:18 39.77722 -123.02150 27907 ft 411 kts 320°
2026-04-25 06:19 39.79966 -123.04428 27324 ft 408 kts 320°
2026-04-25 06:19 39.82198 -123.06693 26763 ft 406 kts 320°
2026-04-25 06:19 39.84395 -123.08925 26213 ft 403 kts 320°
2026-04-25 06:19 39.86597 -123.11163 25674 ft 400 kts 321°
2026-04-25 06:20 39.88783 -123.13389 25141 ft 397 kts 321°
2026-04-25 06:20 39.90952 -123.15597 24614 ft 395 kts 321°
2026-04-25 06:20 39.93108 -123.17795 24165 ft 391 kts 321°
2026-04-25 06:20 39.95248 -123.19976 24044 ft 390 kts 321°
2026-04-25 06:21 39.97384 -123.22157 23991 ft 392 kts 321°
2026-04-25 06:21 39.99538 -123.24357 23957 ft 392 kts 321°
2026-04-25 06:21 40.01693 -123.26563 23500 ft 394 kts 322°
2026-04-25 06:21 40.03840 -123.28758 22887 ft 388 kts 322°
2026-04-25 06:22 40.05946 -123.30916 22296 ft 382 kts 322°
2026-04-25 06:22 40.08030 -123.33052 21713 ft 379 kts 322°
2026-04-25 06:22 40.10088 -123.35163 21135 ft 376 kts 322°
2026-04-25 06:22 40.11451 -123.36563 20777 ft 375 kts 322°
2026-04-25 06:23 40.14166 -123.39352 20054 ft 372 kts 322°
2026-04-25 06:23 40.15533 -123.40758 19689 ft 370 kts 322°
2026-04-25 06:23 40.17544 -123.42827 19150 ft 367 kts 322°
2026-04-25 06:23 40.20198 -123.45560 18464 ft 363 kts 322°
2026-04-25 06:24 40.22177 -123.47600 17917 ft 361 kts 322°
2026-04-25 06:24 40.23503 -123.48968 17520 ft 359 kts 322°
2026-04-25 06:24 40.25446 -123.50973 16937 ft 355 kts 322°
2026-04-25 06:24 40.27375 -123.52965 16389 ft 352 kts 322°
2026-04-25 06:25 40.29295 -123.54948 15834 ft 348 kts 322°
2026-04-25 06:25 40.31163 -123.56881 15297 ft 345 kts 322°
2026-04-25 06:25 40.33045 -123.58830 14769 ft 343 kts 322°
2026-04-25 06:25 40.34902 -123.60753 14239 ft 340 kts 322°
2026-04-25 06:26 40.36755 -123.62674 13728 ft 337 kts 322°
2026-04-25 06:26 40.38592 -123.64579 13137 ft 335 kts 322°
2026-04-25 06:26 40.40415 -123.66471 12577 ft 333 kts 322°
2026-04-25 06:26 40.42221 -123.68348 12029 ft 331 kts 322°
2026-04-25 06:27 40.43966 -123.70307 11469 ft 328 kts 311°
2026-04-25 06:27 40.45059 -123.72890 10922 ft 326 kts 286°
2026-04-25 06:27 40.45193 -123.75827 10389 ft 323 kts 260°
2026-04-25 06:27 40.44360 -123.78482 9878 ft 320 kts 234°
2026-04-25 06:28 40.42802 -123.80579 9311 ft 315 kts 226°
2026-04-25 06:28 40.41666 -123.82941 8746 ft 312 kts 251°
2026-04-25 06:28 40.41439 -123.85743 8192 ft 309 kts 277°
2026-04-25 06:28 40.42192 -123.88354 7652 ft 307 kts 304°
2026-04-25 06:29 40.43739 -123.90117 7575 ft 283 kts 333°
2026-04-25 06:29 40.45488 -123.90585 7528 ft 241 kts
2026-04-25 06:29 40.46966 -123.89970 7447 ft 209 kts 23°
2026-04-25 06:29 40.48249 -123.89212 7374 ft 197 kts 24°
2026-04-25 06:30 40.49478 -123.88482 7314 ft 191 kts 23°
2026-04-25 06:30 40.50706 -123.87791 7275 ft 193 kts 21°
2026-04-25 06:30 40.51956 -123.87145 7250 ft 194 kts 20°
2026-04-25 06:30 40.53228 -123.86554 7228 ft 194 kts 18°
2026-04-25 06:31 40.54520 -123.86026 7206 ft 193 kts 15°
2026-04-25 06:31 40.55822 -123.85619 7179 ft 193 kts
2026-04-25 06:31 40.57161 -123.85605 7164 ft 192 kts 355°
2026-04-25 06:31 40.58472 -123.85822 7151 ft 192 kts 349°
2026-04-25 06:32 40.59805 -123.86207 6921 ft 197 kts 344°
2026-04-25 06:32 40.61137 -123.86717 6410 ft 208 kts 342°
2026-04-25 06:32 40.62562 -123.87338 5847 ft 217 kts 340°
2026-04-25 06:32 40.63972 -123.88026 5313 ft 223 kts 336°
2026-04-25 06:33 40.65372 -123.88901 4909 ft 215 kts 333°
2026-04-25 06:33 40.66629 -123.89738 4757 ft 192 kts 333°
2026-04-25 06:33 40.67767 -123.90507 4545 ft 178 kts 333°
2026-04-25 06:33 40.68849 -123.91238 4321 ft 172 kts 333°
2026-04-25 06:34 40.69904 -123.91920 4092 ft 166 kts 334°
2026-04-25 06:34 40.70926 -123.92585 3864 ft 162 kts 334°
2026-04-25 06:34 40.71931 -123.93246 3649 ft 162 kts 333°
2026-04-25 06:34 40.72930 -123.93926 3454 ft 162 kts 333°
2026-04-25 06:35 40.73932 -123.94603 3304 ft 160 kts 333°
2026-04-25 06:35 40.74925 -123.95274 3243 ft 160 kts 333°
2026-04-25 06:35 40.75918 -123.95947 3218 ft 161 kts 333°
2026-04-25 06:35 40.76920 -123.96625 3216 ft 162 kts 333°
2026-04-25 06:36 40.77918 -123.97301 3200 ft 161 kts 333°
2026-04-25 06:36 40.78918 -123.97979 3197 ft 161 kts 333°
2026-04-25 06:36 40.79914 -123.98654 3212 ft 161 kts 333°
2026-04-25 06:36 40.80914 -123.99332 3214 ft 161 kts 333°
2026-04-25 06:37 40.81895 -123.99997 3206 ft 161 kts 333°
2026-04-25 06:37 40.82890 -124.00673 3197 ft 161 kts 333°
2026-04-25 06:37 40.83892 -124.01353 3104 ft 164 kts 333°
2026-04-25 06:37 40.84889 -124.02030 2894 ft 158 kts 333°
2026-04-25 06:38 40.85839 -124.02676 2694 ft 147 kts 333°
2026-04-25 06:38 40.86716 -124.03272 2496 ft 139 kts 333°
2026-04-25 06:38 40.87569 -124.03852 2330 ft 139 kts 333°
2026-04-25 06:38 40.88438 -124.04442 2183 ft 140 kts 333°
2026-04-25 06:39 40.89309 -124.05035 2013 ft 140 kts 333°
2026-04-25 06:39 40.90176 -124.05625 1833 ft 140 kts 333°
2026-04-25 06:39 40.91035 -124.06209 1656 ft 139 kts 333°
2026-04-25 06:39 40.91885 -124.06787 1469 ft 139 kts 333°
2026-04-25 06:40 40.92743 -124.07372 1266 ft 138 kts 333°
2026-04-25 06:40 40.93609 -124.07962 1060 ft 138 kts 333°
2026-04-25 06:40 40.94450 -124.08537 853 ft 137 kts 333°
2026-04-25 06:40 40.95296 -124.09110 676 ft 136 kts 332°
2026-04-25 06:41 40.96149 -124.09711 502 ft 137 kts 330°
2026-04-25 06:41 40.96971 -124.10281 287 ft 129 kts 332°
2026-04-25 06:41 40.97703 -124.10776 214 ft 98 kts 335°
2026-04-25 06:41 40.98170 -124.11074 198 ft 56 kts 333°
2026-04-25 06:42 40.98429 -124.11249 197 ft 12 kts 333°
2026-04-25 06:42 40.98498 -124.11274 197 ft 8 kts 316°
2026-04-25 06:42 40.98500 -124.11289 194 ft 0 kts 225°
2026-04-25 06:42 40.98493 -124.11287 195 ft 5 kts 165°
2026-04-25 06:43 40.98423 -124.11245 204 ft 17 kts 152°
2026-04-25 06:43 40.98290 -124.11153 204 ft 27 kts 153°
2026-04-25 06:43 40.98143 -124.11142 202 ft 11 kts 238°
2026-04-25 06:43 40.98098 -124.11143 204 ft 11 kts 160°
2026-04-25 06:44 40.97989 -124.11072 205 ft 24 kts 152°
2026-04-25 06:44 40.97807 -124.10947 205 ft 34 kts 151°
2026-04-25 06:44 40.97582 -124.10790 211 ft 31 kts 152°
2026-04-25 06:44 40.97385 -124.10659 218 ft 34 kts 153°
2026-04-25 06:45 40.97249 -124.10568 222 ft 18 kts 152°
2026-04-25 06:45 40.97194 -124.10557 223 ft 5 kts 224°
2026-04-25 06:45 40.97130 -124.10551 224 ft 13 kts 156°
2026-04-25 06:45 40.97055 -124.10523 226 ft 8 kts 206°
2026-04-25 06:46 40.97047 -124.10558 225 ft 3 kts 339°
2026-04-25 06:46 40.97096 -124.10580 224 ft 0 kts 341°